Regional Weather Roundup
Issued by NWS

Home | Current Version | Previous Version | Text Only | Print | Product List | Glossary On
Versions: 1 2 3 4 5 6 7 8 9 10 11 12 13 14 15 16 17 18 19 20 21 22 23 24 25 26 27 28 29 30 31 32 33 34 35 36 37 38 39 40 41 42 43 44 45 46 47 48 49 50
000
ASUS43 KDMX 251207
RWRIA

WEATHER ROUNDUP FOR IOWA
NATIONAL WEATHER SERVICE DES MOINES IA
700 AM CDT MON MAY 25 2015

NOTE: "FAIR" INDICATES FEW OR NO CLOUDS BELOW 12,000 FEET WITH NO
SIGNIFICANT WEATHER AND/OR OBSTRUCTIONS TO VISIBILITY.

* - THESE STATIONS ARE NOT NWS STATIONS...THUS NOT UNDER NWS
QUALITY CONTROL.  THEY ALSO DO NOT REPORT WEATHER SUCH
AS PRECIPITATION OR FOG.

IAZ001>003-012>014-020>022-031>034-043>046-251300-
   NORTHWEST IOWA

CITY           SKY/WX    TMP DP  RH WIND       PRES   REMARKS
CARROLL *      SUNNY     63  63 100 SW12      29.77R
CHEROKEE *     CLOUDY    60  60 100 SW6       29.75R FOG
DENISON *      PTSUNNY   61  61 100 SW6       29.77R
LE MARS *      MOSUNNY   61  61 100 CALM      29.76R FOG
ORANGE CITY *  FOG       57  57 100 W7        29.75S VSB 1/2
SHELDON *      CLOUDY    59  48  67 W6        29.73R HAZE
SIOUX CITY     FOG       59  57  93 CALM      29.75S VSB<1/4
6HR MIN TEMP:  58; 6HR MAX TEMP:  61;

SPENCER        LGT RAIN  61  60  97 W14       29.75R FOG
6HR MIN TEMP:  61; 6HR MAX TEMP:  61;

STORM LAKE *   CLOUDY    61  61 100 W13       29.77R FOG
$$

IAZ055>058-069>071-079>083-090>094-251300-
   SOUTHWEST IOWA

CITY           SKY/WX    TMP DP  RH WIND       PRES   REMARKS
ATLANTIC *     CLOUDY    63  63 100 S9G16     29.81R
AUDUBON *      CLOUDY    63  59  88 S12       29.81R FOG
CLARINDA *     MOSUNNY   63  63 100 S12       29.85S
COUNCIL BLFS * PTSUNNY   63  63 100 S7        29.81R
CRESTON *      CLOUDY    63  63 100 SW16G22   29.85R
HARLAN  *      FOG       61  61 100 S12G18    29.83R VSB 1/2
LAMONI         CLOUDY    64  61  90 SW15      29.86R
6HR MIN TEMP:  63; 6HR MAX TEMP:  64; 6HR PCP:  0.05;

RED OAK *      CLOUDY    63  63 100 S10       29.82R
SHENANDOAH *   PTSUNNY   63  63 100 S14       29.84R
$$

IAZ047>049-059>061-072>074-084-251300-
   CENTRAL IOWA

CITY           SKY/WX    TMP DP  RH WIND       PRES   REMARKS
AMES           CLOUDY    63  61  93 SW12      29.77R
6HR MIN TEMP:  63; 6HR MAX TEMP:  64; 6HR PCP:  0.09;

ANKENY *       PTSUNNY   63  63 100 SW7       29.79R
CHARITON *     MOSUNNY   63  61  94 SW10      29.84R
DES MOINES     CLOUDY    64  61  90 SW9       29.80R
6HR MIN TEMP:  64; 6HR MAX TEMP:  65; 6HR PCP:  0.11;

GRINNELL*      DRIZZLE   63  61  94 SW10      29.81R
KNOXVILLE *    CLOUDY    63  61  94 S10       29.80R
MARSHALLTOWN   LGT RAIN  63  62  97 SW15      29.78R
6HR MIN TEMP:  62; 6HR MAX TEMP:  63; 6HR PCP:  0.57;

PELLA *        DRIZZLE   62  62 100 SW10      29.82R
PERRY *          N/A     62  61  96 SW10      29.79R
$$

IAZ004>006-015-016-023>025-035-036-251300-
   NORTH CENTRAL IOWA

CITY           SKY/WX    TMP DP  RH WIND       PRES   REMARKS
ALGONA *       PTSUNNY   61  61 100 SW10      29.74R FOG
CLARION *      PTSUNNY   61  61 100 SW7       29.74S FOG
ESTHERVILLE    CLOUDY    59  58  96 W7        29.72R
6HR MIN TEMP:  59; 6HR MAX TEMP:  60;

FORT DODGE *   CLOUDY    61  59  94 SW5       29.76R
MASON CITY     CLOUDY    62  61  96 SW10      29.75R FOG
6HR MIN TEMP:  62; 6HR MAX TEMP:  63; 6HR PCP:  0.01;

FOREST CITY *  CLOUDY    59  59 100 SW8       29.73R FOG
IOWA FALLS *   RAIN      63  61  94 SW12      29.77S
$$

IAZ007>011-017>019-026>030-037>042-050>054-066-251300-
   NORTHEAST IOWA

CITY           SKY/WX    TMP DP  RH WIND       PRES   REMARKS
CEDAR RAPIDS   CLOUDY    63  63 100 SW14      29.78R
6HR MIN TEMP:  63; 6HR MAX TEMP:  66; 6HR PCP:  0.06;

CHARLES CITY * CLOUDY    63  63 100 SW10      29.75R FOG
CLINTON *      CLOUDY    64  61  88 SW13      29.82R
DECORAH *      CLOUDY    63  63 100 SW6G14    29.72R
DUBUQUE        CLOUDY    64  62  93 SW13      29.76R
6HR MIN TEMP:  63; 6HR MAX TEMP:  66; 6HR PCP:  0.24;

MONTICELLO *   CLOUDY    64  64 100 SW12      29.77R
OELWEIN *      CLOUDY    63  63 100 SW10      29.76R FOG
WATERLOO       LGT RAIN  63  62  97 SW10      29.76R
6HR MIN TEMP:  63; 6HR MAX TEMP:  64; 6HR PCP:  0.23;

$$

IAZ064-065-067-068-078-251300-
   EAST CENTRAL IOWA

CITY           SKY/WX    TMP DP  RH WIND       PRES   REMARKS
DAVENPORT      CLOUDY    64  61  90 SW10      29.82R
6HR MIN TEMP:  64; 6HR MAX TEMP:  67; 6HR PCP:  0.10;

IOWA CITY      CLOUDY    64  62  93 SW9       29.82R
6HR MIN TEMP:  63; 6HR MAX TEMP:  67; 6HR PCP:  0.05;

MT. PLEASANT * LGT RAIN  63  63  99 SW13      29.84R
MUSCATINE *    CLOUDY    64  63  94 SW9       29.82R
QUAD CITIES    CLOUDY    65  62  90 SW10      29.81R
6HR MIN TEMP:  65; 6HR MAX TEMP:  69; 6HR PCP:  0.03;

$$

IAZ062-063-075>077-085>089-095>099-251300-
   SOUTHEAST IOWA

CITY           SKY/WX    TMP DP  RH WIND       PRES   REMARKS
BURLINGTON     CLOUDY    64  63  96 SW9       29.85R
6HR MIN TEMP:  64; 6HR MAX TEMP:  68; 6HR PCP:  0.35;

FAIRFIELD *    RAIN      63  61  94 SW9       29.84R VSB 1
FORT MADISON * LGT RAIN  63  63 100 SW8       29.87R
KEOKUK *       CLOUDY    64  63  94 SW10      29.86R
OSKALOOSA *    RAIN      61  59  94 SW12      29.83R
CENTERVILLE *  SUNNY     61  61 100 S8        29.86R
OTTUMWA        LGT RAIN  61  60  97 SW8       29.82R
6HR MIN TEMP:  61; 6HR MAX TEMP:  64; 6HR PCP:  0.03;

WASHINGTON *   CLOUDY    64  63  94 SW12      29.84R
$$

ABBREVIATIONS USED IN REMARKS
   TC - TEMPERATURES IN CELSIUS
  WCI - WIND CHILL INDEX
   HX - HEAT INDEX
  VSB - VISIBILITY
$$




USA.gov is the U.S. government's official web portal to all federal, state and local government web resources and services.